WA2GUG Weather Reports


time (UTC)temp
F
wind
direction
speed
knots
gust
knots
rain 1hr
in
rain 24hr
in
rain mn
in
humidity
%
barometer
mb
20260903102702 0 165 0.0 0.0 0.00 0.00 0.00 99 1010.0
20260903102202 0 138 0.0 0.0 0.00 0.00 0.00 99 1010.0
20260903101702 0 76 0.0 0.0 0.00 0.00 0.00 99 1010.0
20260903101202 0 211 0.0 0.0 0.00 0.00 0.00 99 1009.2
20260903100702 0 150 0.0 0.0 0.00 0.00 0.00 99 1010.0
20260903100202 0 135 0.0 0.0 0.00 0.00 0.00 99 1010.0
20260903095702 0 79 0.0 0.0 0.00 0.00 0.00 99 1010.0
20260903095202 0 96 0.0 0.0 0.00 0.00 0.00 99 1010.0
20260903094702 0 274 0.0 0.0 0.00 0.00 0.00 99 1010.0
20260903094202 0 267 0.0 0.0 0.00 0.00 0.00 99 1009.2
20260903093702 0 136 0.0 0.0 0.00 0.00 0.00 99 1010.0
20260903093202 0 135 0.0 0.0 0.00 0.00 0.00 99 1009.2
20260903092702 0 270 0.0 0.0 0.00 0.00 0.00 99 1010.0
20260903092202 0 266 0.0 0.0 0.00 0.00 0.00 99 1009.2
20260903091702 0 264 0.0 0.0 0.00 0.00 0.00 99 1010.0
20260903091202 0 237 0.0 0.0 0.00 0.00 0.00 99 1009.2
20260903090702 0 169 0.0 0.0 0.00 0.00 0.00 99 1010.0
20260903090202 0 286 0.0 0.0 0.00 0.00 0.00 99 1009.2
20260903085702 0 331 0.0 0.0 0.00 0.00 0.00 99 1010.0
20260903085202 0 4 0.0 0.0 0.00 0.00 0.00 99 1010.0
20260903084702 0 162 0.0 0.0 0.00 0.00 0.00 99 1010.0
20260903084202 0 174 0.0 0.0 0.00 0.00 0.00 99 1009.2
20260903083702 0 251 0.0 0.0 0.00 0.00 0.00 99 1010.0
20260903083202 0 180 0.0 0.0 0.00 0.00 0.00 99 1009.2
20260903082702 0 276 0.0 0.0 0.00 0.00 0.00 99 1010.0
20260903082202 0 150 0.0 0.0 0.00 0.00 0.00 99 1010.0
20260903081702 0 124 0.0 0.0 0.00 0.00 0.00 99 1010.0
20260903081202 0 33 0.0 0.0 0.00 0.00 0.00 99 1010.0
20260903080702 0 247 0.0 0.0 0.00 0.00 0.00 99 1010.0
20260903080202 0 270 0.0 0.0 0.00 0.00 0.00 99 1009.2
20260903075702 0 280 0.0 0.0 0.00 0.00 0.00 99 1009.2
20260903075202 0 293 0.0 0.0 0.00 0.00 0.00 99 1009.2
20260903074702 0 198 0.0 0.0 0.00 0.00 0.00 99 1009.2
20260903074202 0 136 0.0 0.0 0.00 0.00 0.00 99 1009.2
20260903073702 0 256 0.0 0.0 0.00 0.00 0.00 99 1010.0
20260903073202 0 182 0.0 0.0 0.00 0.00 0.00 99 1009.2
20260903072702 0 139 0.0 0.0 0.00 0.00 0.00 99 1009.1
20260903072202 0 193 0.0 0.0 0.00 0.00 0.00 99 1009.0
20260903071702 0 288 0.0 0.0 0.00 0.00 0.00 99 1009.0
20260903071202 0 257 0.0 0.0 0.00 0.00 0.00 99 1009.0
20260903070702 0 185 0.0 0.0 0.00 0.00 0.00 99 1009.1
20260903070202 0 216 0.0 0.0 0.00 0.00 0.00 99 1009.1
20260903065702 0 139 0.0 0.0 0.00 0.00 0.00 99 1009.2
20260903065202 0 277 0.0 0.0 0.00 0.00 0.00 99 1009.2
20260903064702 0 184 0.0 0.0 0.00 0.00 0.00 99 1009.0
20260903064202 0 265 0.0 0.0 0.00 0.00 0.00 99 1009.0
20260903063702 0 187 0.0 0.0 0.00 0.00 0.00 99 1009.0
20260903063202 0 184 0.0 0.0 0.00 0.00 0.00 99 1009.0
20260903062702 0 185 0.0 0.0 0.00 0.00 0.00 99 1009.0
20260903062202 0 251 0.0 0.0 0.00 0.00 0.00 99 1009.0
20260903061702 0 95 0.0 0.0 0.00 0.00 0.00 99 1009.0
20260903061202 0 135 0.0 0.0 0.00 0.00 0.00 99 1009.0
20260903060702 0 101 0.0 0.0 0.00 0.00 0.00 99 1009.0
20260903060202 0 282 0.0 0.0 0.00 0.00 0.00 99 1009.0
20260903055702 0 131 0.0 0.0 0.00 0.00 0.00 99 1009.2
20260903055202 0 277 0.0 0.0 0.00 0.00 0.00 99 1009.2
20260903054702 0 274 0.0 0.0 0.00 0.00 0.00 99 1010.0
20260903054202 0 180 0.0 0.0 0.00 0.00 0.00 99 1010.0
20260903053702 0 222 0.0 0.0 0.00 0.00 0.00 99 1010.0
20260903053202 0 286 0.0 0.0 0.00 0.00 0.00 99 1010.0
20260903052702 0 214 0.0 0.0 0.00 0.00 0.00 99 1010.0
20260903052202 0 284 0.0 0.0 0.00 0.00 0.00 99 1010.0
20260903051702 0 89 0.0 0.0 0.00 0.00 0.00 99 1010.0
20260903051202 0 194 0.0 0.0 0.00 0.00 0.00 99 1010.0
20260903050702 0 231 0.0 0.0 0.00 0.00 0.00 99 1010.0
20260903050202 0 225 0.0 0.0 0.00 0.00 0.00 99 1010.0
20260903045702 0 217 0.0 0.0 0.00 0.00 0.00 99 1010.0
20260903045202 0 214 0.0 0.0 0.00 0.00 0.00 99 1010.1
20260903044702 0 219 0.0 0.0 0.00 0.00 0.00 99 1011.0
20260903044202 0 225 0.0 0.0 0.00 0.00 0.00 99 1010.1
20260903043702 0 227 0.0 0.0 0.00 0.00 0.00 99 1010.0
20260903043202 0 232 0.0 0.0 0.00 0.00 0.00 99 1009.2
20260903042702 0 234 0.0 0.0 0.00 0.00 0.00 99 1010.0
20260903042202 0 274 0.0 0.0 0.00 0.00 0.00 99 1010.0
20260903041702 0 227 0.0 0.0 0.00 0.00 0.00 99 1010.2
20260903041202 0 303 0.0 0.0 0.00 0.00 0.00 99 1011.0
20260903040702 0 229 0.0 0.0 0.00 0.00 0.00 99 1011.0
20260903040202 0 208 0.0 0.0 0.00 0.00 0.00 99 1011.0
20260903035702 0 233 0.0 0.0 0.00 0.00 0.00 99 1011.0
20260903035202 0 161 0.0 0.0 0.00 0.00 0.00 99 1011.0
20260903034702 0 277 0.0 0.0 0.00 0.00 0.00 99 1011.0
20260903034202 0 118 0.0 0.0 0.00 0.00 0.00 99 1011.2
20260903033702 0 269 0.0 0.0 0.00 0.00 0.00 99 1012.0
20260903033202 0 260 0.0 0.0 0.00 0.00 0.00 99 1011.2
20260903032702 0 273 0.0 0.0 0.00 0.00 0.00 99 1011.0
20260903032202 0 271 0.0 0.0 0.00 0.00 0.00 99 1011.0
20260903031702 0 102 0.0 1.7 0.00 0.00 0.00 99 1011.0
20260903031202 0 352 0.0 1.7 0.00 0.00 0.00 99 1010.2
20260903030702 0 86 0.0 2.6 0.00 0.00 0.00 99 1011.0
20260903030202 0 262 0.0 3.5 0.00 0.00 0.00 99 1011.0
20260903025702 0 299 0.0 3.5 0.00 0.00 0.00 99 1011.0
20260903025202 0 275 0.0 0.9 0.00 0.00 0.00 99 1011.0
20260903024702 0 247 0.0 1.7 0.00 0.00 0.00 99 1011.0
20260903024202 0 274 0.0 1.7 0.00 0.00 0.00 99 1011.0
20260903023702 0 271 0.0 0.0 0.00 0.00 0.00 99 1011.0
20260903023202 0 233 0.0 0.0 0.00 0.00 0.00 99 1011.0
20260903022702 0 140 0.0 0.0 0.00 0.00 0.00 99 1011.0
20260903022202 0 90 0.0 0.0 0.00 0.00 0.00 99 1011.2
20260903021702 0 273 0.0 0.0 0.00 0.00 0.00 99 1012.0
20260903021202 0 323 0.0 0.0 0.00 0.00 0.00 99 1012.0
20260903020702 0 170 0.0 0.0 0.00 0.00 0.00 99 1012.0
20260903020202 0 91 0.0 0.0 0.00 0.00 0.00 99 1011.2
20260903015702 0 270 0.0 0.0 0.00 0.00 0.00 99 1012.0
20260903015202 0 271 0.0 0.0 0.00 0.00 0.00 99 1012.0
20260903014702 0 127 0.0 0.0 0.00 0.00 0.00 99 1012.0
20260903014202 0 137 0.0 0.0 0.00 0.00 0.00 99 1012.0
20260903013702 0 272 0.0 0.0 0.00 0.00 0.00 99 1012.0
20260903013202 0 277 0.0 0.0 0.00 0.00 0.00 99 1011.2
20260903012701 0 317 0.0 0.0 0.00 0.00 0.00 99 1012.0
20260903012202 0 85 0.0 0.0 0.00 0.00 0.00 99 1012.0
20260903011702 0 269 0.0 0.0 0.00 0.00 0.00 99 1012.0
20260903011201 0 269 0.0 0.0 0.00 0.00 0.00 99 1011.2
20260903010701 0 308 0.0 2.6 0.00 0.00 0.00 99 1012.0
20260903010201 0 283 0.0 4.3 0.00 0.00 0.00 99 1012.0
20260903005702 0 49 0.9 4.3 0.00 0.00 0.00 99 1012.0
20260903005201 0 298 0.0 1.7 0.00 0.00 0.00 99 1012.0
20260903004701 0 277 0.0 0.9 0.00 0.00 0.00 99 1012.0
20260903004201 0 274 0.0 0.9 0.00 0.00 0.00 99 1012.0
20260903003701 0 261 0.0 2.6 0.00 0.00 0.00 99 1011.2
20260903003201 0 256 0.0 2.6 0.00 0.00 0.00 99 1011.2
20260903002701 0 83 0.0 0.9 0.00 0.00 0.00 99 1012.0
20260903002201 0 136 0.0 0.9 0.00 0.00 0.00 99 1011.2
20260903001702 0 251 0.0 1.7 0.00 0.00 0.00 99 1011.2
20260903001201 0 230 0.0 1.7 0.00 0.00 0.00 99 1011.0
20260903000701 0 87 0.0 0.0 0.00 0.00 0.00 99 1011.0
20260903000204 0 275 0.0 0.0 0.00 0.00 0.00 99 1011.2
20260902235701 0 280 0.0 0.0 0.00 0.00 0.00 99 1012.0
20260902235201 0 50 0.0 0.0 0.00 0.00 0.00 99 1012.0
20260902234701 0 284 0.0 0.0 0.00 0.00 0.00 99 1012.0
20260902234201 0 93 0.0 0.0 0.00 0.00 0.00 99 1012.0
20260902233701 0 271 0.0 2.6 0.00 0.00 0.00 99 1012.0
20260902233201 0 229 0.0 3.5 0.00 0.00 0.00 99 1012.0
20260902232701 0 270 0.0 3.5 0.00 0.00 0.00 99 1012.0
20260902232201 0 265 0.0 0.0 0.00 0.00 0.00 99 1012.0
20260902231702 0 253 0.0 0.0 0.00 0.00 0.00 99 1012.0
20260902231201 0 269 0.0 0.0 0.00 0.00 0.00 99 1012.0
20260902230701 0 308 0.0 0.0 0.00 0.00 0.00 99 1012.0
20260902230201 0 265 0.0 0.0 0.00 0.00 0.00 99 1012.0
20260902225701 0 258 0.0 4.3 0.00 0.00 0.00 99 1012.0
20260902225201 0 276 0.9 6.1 0.00 0.00 0.00 99 1012.0
20260902224701 0 268 1.7 6.1 0.00 0.00 0.00 99 1012.0
20260902224201 0 125 0.9 3.5 0.00 0.00 0.00 99 1012.2
20260902223701 0 266 0.9 3.5 0.00 0.00 0.00 99 1013.0
20260902223201 0 174 0.0 3.5 0.00 0.00 0.00 99 1013.0
20260902222701 0 263 0.0 3.5 0.00 0.00 0.00 99 1012.2
20260902222201 0 126 0.0 0.9 0.00 0.00 0.00 99 1013.0
20260902221702 0 89 0.0 2.6 0.00 0.00 0.00 99 1012.2
20260902221201 0 267 0.0 2.6 0.00 0.00 0.00 99 1013.0
20260902220701 0 95 0.9 2.6 0.00 0.00 0.00 99 1012.2
20260902215701 0 90 0.9 3.5 0.00 0.00 0.00 99 1012.2
20260902215201 0 129 1.7 3.5 0.00 0.00 0.00 99 1012.2
20260902214701 0 268 0.0 2.6 0.00 0.00 0.00 99 1012.2
20260902214201 0 275 0.0 2.6 0.00 0.00 0.00 99 1013.0
20260902213701 0 250 0.9 3.5 0.00 0.00 0.00 99 1013.0
20260902213201 0 269 0.0 3.5 0.00 0.00 0.00 99 1013.0
20260902212701 0 270 0.9 3.5 0.00 0.00 0.00 99 1013.0
20260902212201 0 99 0.0 2.6 0.00 0.00 0.00 99 1012.2
20260902211701 0 266 0.0 2.6 0.00 0.00 0.00 99 1013.0
20260902211201 0 263 0.9 2.6 0.00 0.00 0.00 99 1013.0
20260902210201 0 273 0.9 3.5 0.00 0.00 0.00 99 1012.2
20260902205701 0 278 0.9 3.5 0.00 0.00 0.00 99 1013.0
20260902205201 0 279 0.9 3.5 0.00 0.00 0.00 99 1013.0
20260902204701 0 275 0.9 5.2 0.00 0.00 0.00 99 1013.0
20260902204201 0 273 0.9 5.2 0.00 0.00 0.00 99 1012.2
20260902203701 0 274 0.0 4.3 0.00 0.00 0.00 99 1013.0
20260902203201 0 275 0.0 4.3 0.00 0.00 0.00 99 1013.0
20260902202701 0 280 0.9 4.3 0.00 0.00 0.00 99 1012.2
20260902202201 0 98 0.0 4.3 0.00 0.00 0.00 99 1012.2
20260902201701 0 289 0.9 4.3 0.00 0.00 0.00 99 1013.0
20260902201201 0 273 1.7 4.3 0.00 0.00 0.00 99 1012.2
20260902200701 0 96 1.7 4.3 0.00 0.00 0.00 99 1012.2
20260902200201 0 225 0.9 4.3 0.00 0.00 0.00 99 1012.2
20260902195701 0 268 0.0 3.5 0.00 0.00 0.00 99 1012.2
20260902195201 0 268 0.9 3.5 0.00 0.00 0.00 99 1012.2
20260902194701 0 268 0.9 3.5 0.00 0.00 0.00 99 1012.2
20260902194201 0 273 0.9 3.5 0.00 0.00 0.00 99 1012.2
20260902193701 0 275 0.0 3.5 0.00 0.00 0.00 99 1012.2
20260902193201 0 269 0.0 4.3 0.00 0.00 0.00 99 1013.0
20260902192701 0 273 0.9 4.3 0.00 0.00 0.00 99 1013.0
20260902192201 0 269 0.0 2.6 0.00 0.00 0.00 99 1013.0
20260902191701 0 267 0.9 2.6 0.00 0.00 0.00 99 1013.0
20260902191201 0 265 0.0 3.5 0.00 0.00 0.00 99 1012.2
20260902190701 0 217 0.9 3.5 0.00 0.00 0.00 99 1013.0
20260902190201 0 47 0.0 0.0 0.00 0.00 0.00 99 1013.0
20260902185701 0 349 0.0 1.7 0.00 0.00 0.00 99 1012.2
20260902185203 0 278 0.0 2.6 0.00 0.00 0.00 99 1013.0
20260902184701 0 272 0.0 2.6 0.00 0.00 0.00 99 1013.0
20260902184201 0 288 0.0 2.6 0.00 0.00 0.00 99 1012.2
20260902183701 0 273 0.9 2.6 0.00 0.00 0.00 99 1013.0
20260902183201 0 270 0.0 2.6 0.00 0.00 0.00 99 1013.0
20260902182701 0 269 0.0 2.6 0.00 0.00 0.00 99 1013.0
20260902182201 0 90 0.0 2.6 0.00 0.00 0.00 99 1012.2
20260902181701 0 132 0.9 3.5 0.00 0.00 0.00 99 1012.2
20260902181201 0 264 0.9 3.5 0.00 0.00 0.00 99 1012.2
20260902180701 0 169 0.0 2.6 0.00 0.00 0.00 99 1012.2
20260902180201 0 268 0.0 2.6 0.00 0.00 0.00 99 1013.0
20260902175701 0 262 0.9 4.3 0.00 0.00 0.00 99 1012.2
20260902175201 0 266 0.9 4.3 0.00 0.00 0.00 99 1012.2
20260902174701 0 97 0.0 5.2 0.00 0.00 0.00 99 1012.2
20260902174201 0 171 0.0 5.2 0.00 0.00 0.00 99 1012.2
20260902173701 0 275 0.0 3.5 0.00 0.00 0.00 99 1013.0
20260902173201 0 131 0.0 3.5 0.00 0.00 0.00 99 1012.2
20260902172701 0 209 0.0 1.7 0.00 0.00 0.00 99 1013.0
20260902172201 0 102 0.0 3.5 0.00 0.00 0.00 99 1013.1
20260902171701 0 286 0.9 3.5 0.00 0.00 0.00 99 1013.2
20260902171201 0 279 0.0 0.9 0.00 0.00 0.00 99 1013.2
20260902170701 0 276 0.0 1.7 0.00 0.00 0.00 99 1014.0
20260902170201 0 276 0.0 2.6 0.00 0.00 0.00 99 1014.0
20260902165701 0 275 0.0 2.6 0.00 0.00 0.00 99 1013.2
20260902165201 0 266 0.0 1.7 0.00 0.00 0.00 99 1013.2
20260902164701 0 237 0.0 0.9 0.00 0.00 0.00 99 1014.0
20260902164201 0 265 0.0 1.7 0.00 0.00 0.00 99 1013.2
20260902163701 0 271 0.0 2.6 0.00 0.00 0.00 99 1013.2
20260902163201 0 285 0.0 2.6 0.00 0.00 0.00 99 1014.0
20260902162701 0 230 0.0 3.5 0.00 0.00 0.00 99 1014.0
20260902162201 0 270 0.9 3.5 0.00 0.00 0.00 99 1013.2
20260902161701 0 229 0.0 2.6 0.00 0.00 0.00 99 1014.0
20260902161201 0 271 0.0 6.1 0.00 0.00 0.00 99 1014.0
20260902160701 0 274 0.9 6.1 0.00 0.00 0.00 99 1014.0
20260902160201 0 278 0.0 4.3 0.00 0.00 0.00 99 1014.0
20260902155701 0 288 0.9 4.3 0.00 0.00 0.00 99 1013.2
20260902155201 0 89 0.0 4.3 0.00 0.00 0.00 99 1014.0
20260902154701 0 270 0.0 4.3 0.00 0.00 0.00 99 1013.2
20260902154201 0 270 0.0 3.5 0.00 0.00 0.00 99 1014.0
20260902153701 0 277 0.0 2.6 0.00 0.00 0.00 99 1013.2
20260902153201 0 274 0.0 2.6 0.00 0.00 0.00 99 1013.2
20260902152701 0 176 0.0 1.7 0.00 0.00 0.00 99 1013.2
20260902152201 0 281 0.0 0.0 0.00 0.00 0.00 99 1014.0
20260902151701 0 269 0.0 0.0 0.00 0.00 0.00 99 1013.2
20260902151201 0 267 0.0 0.0 0.00 0.00 0.00 99 1013.2
20260902150701 0 138 0.0 0.0 0.00 0.00 0.00 99 1013.2
20260902150201 0 230 0.0 0.0 0.00 0.00 0.00 99 1014.0
20260902145701 0 270 0.0 0.9 0.00 0.00 0.00 99 1014.0
20260902145201 0 271 0.0 0.9 0.00 0.00 0.00 99 1014.0
20260902144701 0 277 0.0 0.0 0.00 0.00 0.00 99 1013.2
20260902144201 0 269 0.0 1.7 0.00 0.00 0.00 99 1014.0
20260902143701 0 270 0.0 3.5 0.00 0.00 0.00 99 1013.2
20260902143201 0 271 0.0 3.5 0.00 0.00 0.00 99 1013.2
20260902142701 0 280 0.0 0.0 0.00 0.00 0.00 99 1013.2
20260902142201 0 271 0.0 4.3 0.00 0.00 0.00 99 1014.0
20260902141701 0 358 0.9 4.3 0.00 0.00 0.00 99 1013.2
20260902141201 0 276 0.0 2.6 0.00 0.00 0.00 99 1014.0
20260902140701 0 270 0.0 0.9 0.00 0.00 0.00 99 1014.0
20260902140201 0 267 0.0 4.3 0.00 0.00 0.00 99 1013.2
20260902135701 0 280 0.9 4.3 0.00 0.00 0.00 99 1013.2
20260902135201 0 274 0.9 3.5 0.00 0.00 0.00 99 1013.2
20260902134701 0 269 0.0 3.5 0.00 0.00 0.00 99 1014.0
20260902134201 0 299 0.0 3.5 0.00 0.00 0.00 99 1014.0
20260902133701 0 42 0.0 2.6 0.00 0.00 0.00 99 1013.2
20260902133201 0 265 0.0 0.0 0.00 0.00 0.00 99 1014.0
20260902132701 0 94 0.0 0.0 0.00 0.00 0.00 99 1013.2
20260902132201 0 265 0.0 0.0 0.00 0.00 0.00 99 1014.0
20260902131701 0 238 0.0 2.6 0.00 0.00 0.00 99 1014.0
20260902131201 0 265 0.0 2.6 0.00 0.00 0.00 99 1013.2
20260902130701 0 272 0.0 1.7 0.00 0.00 0.00 99 1013.2
20260902130201 0 136 0.0 2.6 0.00 0.00 0.00 99 1013.2
20260902125701 0 268 0.9 2.6 0.00 0.00 0.00 99 1013.2
20260902125201 0 231 0.0 2.6 0.00 0.00 0.00 99 1013.2
20260902124701 0 279 0.0 2.6 0.00 0.00 0.00 99 1014.0
20260902124201 0 175 0.0 2.6 0.00 0.00 0.00 99 1013.2
20260902123701 0 136 0.0 2.6 0.00 0.00 0.00 99 1013.2
20260902123201 0 268 0.0 2.6 0.00 0.00 0.00 99 1013.0
20260902122700 0 257 0.0 1.7 0.00 0.00 0.00 99 1013.0
20260902122201 0 235 0.0 2.6 0.00 0.00 0.00 99 1013.1
20260902121701 0 85 0.0 2.6 0.00 0.00 0.00 99 1013.1
20260902121200 0 249 0.0 2.6 0.00 0.00 0.00 99 1013.0
20260902120701 0 319 0.0 0.9 0.00 0.00 0.00 99 1013.0
20260902120200 0 96 0.0 0.9 0.00 0.00 0.00 99 1013.0
20260902115700 0 246 0.0 0.0 0.00 0.00 0.00 99 1013.0
20260902115200 0 100 0.0 2.6 0.00 0.00 0.00 99 1013.0
20260902114700 0 278 0.0 2.6 0.00 0.00 0.00 99 1013.0
20260902114200 0 269 0.0 2.6 0.00 0.00 0.00 99 1013.0
20260902113700 0 304 0.0 2.6 0.00 0.00 0.00 99 1013.1
20260902113200 0 230 0.0 1.7 0.00 0.00 0.00 99 1013.1
20260902112700 0 271 0.0 2.6 0.00 0.00 0.00 99 1013.0
20260902112200 0 225 0.0 2.6 0.00 0.00 0.00 99 1013.0
20260902111701 0 81 0.0 1.7 0.00 0.00 0.00 99 1013.1
20260902111200 0 200 0.0 0.0 0.00 0.00 0.00 99 1013.2
20260902110700 0 203 0.0 0.0 0.00 0.00 0.00 99 1014.0
20260902110200 0 125 0.0 2.6 0.00 0.00 0.00 99 1014.0
20260902105700 0 86 0.0 2.6 0.00 0.00 0.00 99 1014.0
20260902105200 0 263 0.0 0.0 0.00 0.00 0.00 99 1014.0
20260902104700 0 244 0.0 1.7 0.00 0.00 0.00 99 1014.0
20260902104200 0 52 0.0 1.7 0.00 0.00 0.00 99 1013.2
20260902103700 0 278 0.0 0.0 0.00 0.00 0.00 99 1014.0
20260902103200 0 264 0.0 0.0 0.00 0.00 0.00 99 1013.1